Regional Weather Roundup
Issued by NWS Upton, NY

Home | Current Version | Previous Version | Text Only | Print | Product List | Glossary On
Versions: 1 2 3 4 5 6 7 8 9 10 11 12 13 14 15 16 17 18 19 20 21 22 23 24 25 26 27 28 29 30 31 32 33 34 35 36 37 38 39 40 41 42 43 44 45 46 47 48 49 50
000
ASUS41 KOKX 021204
RWROKX

REGIONAL WEATHER ROUNDUP
NATIONAL WEATHER SERVICE NEW YORK NY
800 AM EDT SUN AUG 02 2015

NOTE: "FAIR" INDICATES FEW OR NO CLOUDS BELOW 12,000 FEET WITH NO
SIGNIFICANT WEATHER AND/OR OBSTRUCTIONS TO VISIBILITY.

NYZ071-072-176-178-NJZ106-104-021300-
NEW YORK CITY METRO AREA


CITY           SKY/WX    TMP DP  RH WIND       PRES   REMARKS
CENTRAL PARK   SUNNY     74  57  55 CALM      29.94R
LAGUARDIA APRT MOSUNNY   76  57  51 CALM      29.90R
KENNEDY INTL   MOSUNNY   78  60  53 CALM      29.92R
NEWARK/LIBERTY SUNNY     75  58  55 CALM      29.91R
BRNX BOT. GARD   N/A     77  59  53 E3        29.91F
TETERBORO      SUNNY     73  57  57 CALM      29.90S
$$

NYZ177-179-078>081-021300-
LONG ISLAND NEW YORK

CITY           SKY/WX    TMP DP  RH WIND       PRES   REMARKS
FARMINGDALE    SUNNY     75  60  59 CALM      29.92R
ISLIP          SUNNY     75  63  66 CALM      29.90R
SHIRLEY        SUNNY     75  64  68 N3        29.92R
WESTHAMPTON    SUNNY     75  64  68 CALM      29.93R
MONTAUK POINT    N/A     75  61  61 CALM      29.91S
$$

NYZ052-065-067-021300-
HUDSON VALLEY

CITY           SKY/WX    TMP DP  RH WIND       PRES   REMARKS
WHITE PLAINS   SUNNY     73  65  75 CALM      29.92R
NEWBURGH       SUNNY     66  59  77 W9        29.93R
MONTGOMERY     SUNNY     65  60  84 S6        29.92R
POUGHKEEPSIE   SUNNY     66  59  78 CALM      29.90S
ALBANY         MOSUNNY   66  57  72 S6        29.90R
$$

NJZ001-105-106-008-010-013-015-019>022-104-021300-
NEW JERSEY

CITY           SKY/WX    TMP DP  RH WIND       PRES   REMARKS
NEWARK/LIBERTY SUNNY     75  58  55 CALM      29.91R
TETERBORO      SUNNY     73  57  57 CALM      29.90S
CALDWELL       SUNNY     68  57  68 CALM      29.93R
MORRISTOWN     SUNNY     70  64  83 CALM      29.93R
SOMERVILLE     SUNNY     66  59  78 CALM      29.91R
SUSSEX         SUNNY     62  58  86 CALM      29.93R
ANDOVER          N/A     63  61  93 CALM      29.94R
TRENTON        SUNNY     72  59  63 NW5       29.92R
MILLVILLE      PTSUNNY   74  62  66 N5        29.93R
ATLANTIC CITY  SUNNY     73  63  70 NW5       29.93R
WRIGHTSTOWN    NOT AVBL
TOMS RIVER       N/A     72  61  68 NW5       29.92R
BELMAR         SUNNY     72  57  60 NW7       29.92R
$$

PAZ047>061-062-071-021300-
EASTERN PENNSYLVANIA

CITY           SKY/WX    TMP DP  RH WIND       PRES   REMARKS
PHILADELPHIA   MOSUNNY   75  58  55 W3        29.93R
ALLENTOWN      SUNNY     68  60  75 CALM      29.94R
SCRANTON       SUNNY     64  57  78 CALM      29.94R
$$

CTZ002-004>006-009-010-012-RIZ004-006-007-MAZ004-011-015-021300-
SOUTHERN NEW ENGLAND
 IN CT

CITY           SKY/WX    TMP DP  RH WIND       PRES   REMARKS
BRADLEY INTL   SUNNY     67  58  72 S5        29.90R
HARTFORD       SUNNY     68  61  78 CALM      29.90S
DANBURY        SUNNY     67  58  72 CALM      29.93S
WTRBRY/OXFORD  SUNNY     66  55  68 CALM      29.94R
BRIDGEPORT     SUNNY     73  61  65 CALM      29.91R
MERIDEN        SUNNY     67  61  81 CALM      29.91R
NEW HAVEN      SUNNY     70  61  73 CALM      29.91S
CHESTER        FAIR      70  59  68 S5        29.93R
GROTON         SUNNY     71  64  78 CALM      29.90R
WILLIMANTIC    SUNNY     65  59  81 CALM      29.91R

 IN RI

CITY           SKY/WX    TMP DP  RH WIND       PRES   REMARKS
PROVIDENCE     SUNNY     70  57  63 W5        29.91R
BLOCK ISLAND     N/A     75  59  57 N3        29.92S
WESTERLY       SUNNY     72  62  71 CALM      29.91R

 IN MA

CITY           SKY/WX    TMP DP  RH WIND       PRES   REMARKS
BOSTON         SUNNY     72  53  51 W8        29.88R
WORCESTER      SUNNY     68  53  58 W10       29.92R
WESTFIELD      SUNNY     64  58  80 S8        29.91R
PROVINCETOWN   SUNNY     72  57  60 W8        29.89R
NANTUCKET      SUNNY     78  60  53 W6        29.90R
$$

ANZ330-335-338-340-345-350-353-355-021300-
COASTAL MARINE OBSERVATIONS


STATION/POSITION TIME  SKY/WX   TEMP    WIND        PRES    VSBY  WAVE
                                AIR SEA DIR/SP/G                  HT/PER
                 (UTC)          (F)     (DEG/KT/KT) (MB)    (MI)  (FT/S)
NY HARB ENTRANCE 1050            74 77  300/  8/ 10 1012.0          3/ 8
4S FIRE IS       NOT AVBL
20S FIRE ISLAND  1050            76 76  350/  6/  8 1011.9          3/ 8
GREAT SOUTH BAY  1130            73 80   20/  6/  6   N/A
23SW MTP         1150            73 73   40/  4/  6 1012.3          4/ 8
HUDSON CANYON    NOT AVBL
KINGS POINT      1100            70 67   CALM  /  1 1011.8
EXECUTION ROCKS  1100            83      CALM  /  2   N/A
CENTRAL LI SOUND NOT AVBL
EASTERN LI SOUND 1100            72 69  290/  2/  4   N/A
ROBBINS REEF     1100            71     270/  7/  8 1011.4
$$


>>>>>>>>>>>>>>>>>>>>>>>>>>>> KEY <<<<<<<<<<<<<<<<<<<<<<<<<<<
>                                                          <
>     SKY/WX - SKY CONDITION/PRESENT WEATHER               <
>     TMP    - TEMPERATURE IN FAHRENHEIT                   <
>     DP     - DEWPOINT IN FAHRENHEIT                      <
>     RH     - RELATIVE HUMIDITY IN PERCENT                <
>     WIND   - DIRECTION AND SPEED IN MPH                  <
>     PRES   - MEAN SEA LEVEL PRESSURE IN INCHES OF HG     <
>     WCI    - WIND CHILL INDEX                            <
>     VSB    - VISIBILITY IN MILES                         <
>     HX     - HEAT INDEX                                  <
>     TC     - TEMPERATURE IN CELSIUS                      <
>     VRB    - VARIABLE WIND DIRECTION                     <
>                                                          <
>>>>>>>>>>>>>>>>>>>>>>>>>>>> KEY <<<<<<<<<<<<<<<<<<<<<<<<<<<




USA.gov is the U.S. government's official web portal to all federal, state and local government web resources and services.